{"data":{"norad_id":65038,"intl_designator":"2025-161Z","name":"STARLINK-34827","alt_names":[],"object_type":"PAYLOAD","status":"ACTIVE","operator":null,"country":"US","launch_date":"2025-07-30","launch_site_code":"AFWTR","launch_vehicle":null,"mission":null,"orbit_class":"UNKNOWN","rcs_meters":null,"size_class":null,"mass_kg":null,"dimensions":null,"purposes":["comms"],"wikipedia_slug":null,"has_3d_model":false,"image_url":null,"decayed_at":null,"tle_current":{"epoch":"2026-09-19T22:38:17.195712Z","epoch_age_seconds":169018,"freshness":"FRESH","line1":"1 65038U 25161Z   26262.94325458  .00012554  00000+0  38189-3 0  9993","line2":"2 65038  53.1582 108.1739 0001280  90.4711 269.6438 15.34413401 64026","mean_motion":15.34413401,"eccentricity":0.000128,"inclination_deg":53.1582,"raan_deg":108.1739,"arg_perigee_deg":90.4711,"mean_anomaly_deg":269.6438,"bstar":0.00038189,"rev_number":6402,"period_min":93.846938449673,"perigee_km":461.78778744839,"apogee_km":463.53903235333,"semimajor_km":6840.8004099009,"source":"CELESTRAK","updated_at":"2026-09-21T09:00:35.496434Z"}}}